CW0565 Weather Reports


time (UTC)temp
C
wind
direction
speed
KPH
gust
KPH
rain 1hr
cm
rain 24hr
cm
rain mn
cm
humidity
%
barometer
mb
20260905064510 12 192 4.8 16.1 0.00 0.46 0.03 87 999.7
20260905063009 11 203 3.2 11.3 0.00 0.46 0.03 87 999.3
20260905061512 11 217 4.8 16.1 0.00 0.46 0.03 87 999.5
20260905060010 11 210 4.8 14.5 0.00 0.46 0.03 88 999.4
20260905054531 11 221 4.8 16.1 0.00 0.46 0.03 88 999.4
20260905053010 11 184 1.6 9.7 0.00 0.46 0.03 87 999.4
20260905051509 11 207 0.0 11.3 0.00 0.46 0.03 87 999.4
20260905050013 11 236 6.4 14.5 0.00 0.46 0.03 88 999.4
20260905044513 11 200 4.8 12.9 0.00 0.46 0.03 88 999.3
20260905043009 11 227 6.4 24.1 0.00 0.46 0.03 86 999.2
20260905041510 11 232 12.9 22.5 0.00 0.46 0.03 87 999.1
20260905040013 11 219 11.3 20.9 0.00 0.46 0.03 86 999.1
20260905034510 11 204 8.0 19.3 0.00 0.46 0.03 86 999.1
20260905033009 10 243 6.4 17.7 0.00 0.46 0.03 90 999.2
20260905031509 10 205 1.6 9.7 0.00 0.46 0.03 92 999.1
20260905030009 10 200 0.0 0.0 0.00 0.46 0.03 92 999.0
20260905024512 10 201 0.0 11.3 0.00 0.46 0.03 92 999.0
20260905023018 10 215 1.6 6.4 0.00 0.46 0.03 94 998.8
20260905021509 10 215 0.0 9.7 0.00 0.46 0.03 95 998.8
20260905020010 10 192 3.2 6.4 0.00 0.46 0.03 95 998.7
20260905014509 10 192 0.0 0.0 0.00 0.46 0.03 95 998.7
20260905013009 10 192 0.0 6.4 0.00 0.46 0.03 95 998.5
20260905011510 10 191 0.0 6.4 0.00 0.46 0.03 95 998.5
20260905010011 10 231 1.6 6.4 0.00 0.46 0.03 95 998.3
20260905004509 10 231 0.0 4.8 0.00 0.46 0.03 96 998.2
20260905003009 10 231 1.6 4.8 0.00 0.46 0.03 95 998.1
20260905001510 10 231 0.0 4.8 0.00 0.46 0.03 95 997.9
20260905000010 10 231 0.0 4.8 0.03 0.46 0.03 94 998.2
20260904234513 10 231 0.0 3.2 0.03 0.46 0.03 93 998.2
20260904233012 10 231 0.0 4.8 0.03 0.46 0.03 92 998.1
20260904231510 10 231 0.0 3.2 0.03 0.46 0.03 91 998.0
20260904230010 11 231 0.0 0.0 0.00 0.43 0.00 90 998.1
20260904224509 11 231 0.0 1.6 0.00 0.43 0.00 89 998.0
20260904223010 11 231 1.6 6.4 0.00 0.43 0.00 90 997.9
20260904220009 11 253 1.6 4.8 0.00 0.43 0.43 90 997.7
20260904214509 11 253 0.0 0.0 0.00 0.43 0.43 88 997.4
20260904213012 11 254 0.0 6.4 0.00 0.43 0.43 88 997.2
20260904211516 11 253 0.0 6.4 0.00 0.43 0.43 87 997.2
20260904210021 11 253 1.6 6.4 0.00 0.43 0.43 86 997.2
20260904204517 11 252 4.8 12.9 0.00 0.43 0.43 86 997.4
20260904203009 11 258 4.8 12.9 0.00 0.43 0.43 87 997.3
20260904201509 12 289 0.0 8.0 0.00 0.43 0.43 88 997.2
20260904200009 12 289 0.0 8.0 0.05 0.46 0.43 87 997.1
20260904194509 12 294 3.2 8.0 0.05 0.46 0.43 88 997.0
20260904193010 12 294 1.6 6.4 0.10 0.46 0.43 87 997.0
20260904191511 12 309 3.2 12.9 0.13 0.46 0.43 88 997.1
20260904190011 12 279 6.4 20.9 0.15 0.61 0.41 88 997.2
20260904184509 12 294 6.4 20.9 0.15 0.61 0.38 89 997.0
20260904183009 12 289 8.0 16.1 0.15 0.56 0.33 90 996.8
20260904181511 12 237 4.8 16.1 0.13 0.53 0.33 91 996.6
20260904180009 12 259 14.5 19.3 0.05 0.61 0.25 93 996.6
20260904174511 12 165 0.0 4.8 0.03 0.56 0.23 94 996.4
20260904173010 12 165 0.0 0.0 0.03 0.53 0.20 94 996.4
20260904171518 12 165 1.6 12.9 0.05 0.53 0.20 93 996.4
20260904170009 12 167 3.2 8.0 0.08 0.61 0.20 92 996.3
20260904164509 12 167 6.4 8.0 0.15 0.61 0.20 92 996.3
20260904163009 13 165 6.4 12.9 0.18 0.58 0.18 91 996.3
20260904161509 13 174 8.0 12.9 0.15 0.56 0.15 90 996.2
20260904160011 13 165 9.7 12.9 0.13 0.61 0.13 87 996.2
20260904154508 13 227 3.2 14.5 0.05 0.56 0.05 83 996.4
20260904153018 15 188 6.4 16.1 0.00 0.51 0.00 81 996.4
20260904151511 15 184 8.0 20.9 0.00 0.51 0.00 78 996.4
20260904150025 15 175 11.3 25.7 0.00 0.61 0.00 74 996.4
20260904144511 16 205 9.7 14.5 0.00 0.61 0.00 68 996.2
20260904143011 16 223 4.8 16.1 0.00 0.61 0.00 67 996.3
20260904141509 16 204 11.3 19.3 0.00 0.61 0.00 65 996.4
20260904140009 16 237 8.0 16.1 0.00 0.61 0.00 65 996.4
20260904134529 17 252 11.3 17.7 0.00 0.61 0.00 61 996.5
20260904133009 17 207 6.4 17.7 0.00 0.61 0.00 62 996.6
20260904131513 16 234 8.0 17.7 0.00 0.61 0.00 63 996.7
20260904130017 17 254 11.3 20.9 0.00 0.61 0.00 62 996.9
20260904123010 17 261 9.7 17.7 0.00 0.61 0.00 61 997.4
20260904121510 17 257 9.7 20.9 0.00 0.61 0.00 60 997.5
20260904120009 17 223 11.3 22.5 0.00 0.61 0.00 61 997.6
20260904114521 17 202 6.4 14.5 0.00 0.61 0.00 63 997.6
20260904113010 16 229 6.4 17.7 0.00 0.61 0.00 64 997.8
20260904111521 16 238 6.4 16.1 0.00 0.61 0.00 62 997.8
20260904110010 16 219 9.7 16.1 0.00 0.61 0.00 63 997.8
20260904104510 16 231 8.0 14.5 0.00 0.61 0.00 63 998.0
20260904103009 16 220 4.8 17.7 0.00 0.61 0.00 63 998.0
20260904101510 15 246 11.3 20.9 0.00 0.61 0.00 64 998.4
20260904100010 16 232 11.3 17.7 0.00 0.64 0.00 63 998.6
20260904094519 16 288 9.7 22.5 0.00 0.64 0.00 62 998.7
20260904093010 16 222 9.7 17.7 0.00 0.64 0.00 63 998.8
20260904091509 15 227 8.0 14.5 0.00 0.64 0.00 66 998.9
20260904090010 15 240 9.7 17.7 0.00 0.66 0.00 70 999.2
20260904084513 14 242 9.7 17.7 0.00 0.66 0.00 74 999.1
20260904083017 13 229 6.4 11.3 0.00 0.66 0.00 76 999.1
20260904081511 13 230 6.4 14.5 0.00 0.66 0.00 78 999.3
20260904080011 12 172 4.8 11.3 0.00 0.66 0.00 83 999.5
20260904074509 12 172 4.8 8.0 0.00 0.66 0.00 82 999.5
20260904073009 12 172 4.8 8.0 0.00 0.66 0.00 86 999.5
20260904071510 11 172 0.0 8.0 0.00 0.66 0.00 90 999.6
20260904070009 11 172 6.4 9.7 0.00 0.66 0.00 91 999.7